Tracking 19794 objects as of 23-Jul-2019
HD Live streaming from Space Station
objects crossing your sky now

SKYNET 2B

Track SKYNET 2B now!
SKYNET 2B is classified as:


NORAD ID: 7547
Int'l Code: 1974-094A
Perigee: 35,780.6 km
Apogee: 35,802.1 km
Inclination: 9.6 °
Period: 1,436.0 minutes
Semi major axis: 42162 km
RCS: 3.166 m2 (large)
Launch date: November 23, 1974
Source: United Kingdom (UK)
Launch site: AIR FORCE EASTERN TEST RANGE (AFETR)
aabbcc
Your satellite tracking list
Your tracking list is empty




NASA's NSSDC Master Catalog

Two Line Element Set (TLE):
1  7547U 74094A   19203.64330956 -.00000270 +00000-0 +00000-0 0  9998
2  7547 009.5940 308.7783 0002546 094.8504 269.1215 01.00280237099484
Source of the keplerian elements: AFSPC